Probability
0 0 0 0 0 0 0 0 0 0 0 0 0 3 10 3 3 6 6 10 13 13 3 6 10 13 10 10 6 6 10 6 6 6 10 13 16 6 3 3 10 10 10 16
0 0 0 0 0 0 0 0 0 0 0 0 0 3 6 10 6 3 3 3 3 3 3 3 6 13 13 6 10 13 13 6 6 6 10 10 13 10 6 13 16 13 13 19
0 0 0 0 0 0 0 0 0 0 0 0 0 0 6 10 6 3 3 3 6 6 6 10 10 13 16 19 16 19 13 13 6 10 13 6 3 3 10 16 13 6 10 19
0 0 0 0 0 0 0 0 0 0 0 0 0 0 0 3 6 6 6 6 6 10 6 6 10 10 19 23 19 19 16 13 10 6 10 10 6 6 10 6 10 6 10 19
0 0 0 0 0 0 0 0 0 0 0 0 0 0 0 0 3 3 3 6 6 10 6 10 10 13 19 19 19 19 16 16 16 16 10 6 6 3 3 3 6 6 10 13
0 0 0 0 0 0 0 0 0 0 0 0 0 0 0 0 0 0 3 3 3 6 6 10 10 13 13 16 16 23 19 16 13 13 19 16 10 6 3 6 16 13 13 23
0 0 0 0 0 0 0 0 0 0 0 0 0 0 0 0 3 0 0 0 0 0 6 6 6 10 13 23 23 26 29 19 19 16 19 23 13 6 10 13 16 19 23 23
0 0 0 0 0 0 0 0 0 0 0 0 0 0 0 6 3 3 6 10 3 3 3 10 6 10 16 19 23 26 26 29 29 26 23 23 16 19 23 19 23 16 23 23
0 0 0 0 0 0 0 0 0 0 0 0 0 0 3 6 6 6 13 13 6 6 3 6 6 10 16 16 23 29 32 32 32 32 29 26 26 26 26 19 19 23 23 23
0 0 0 0 0 0 0 0 0 0 0 0 0 0 3 3 3 13 13 13 13 10 13 10 6 23 23 26 19 29 39 39 42 35 32 29 26 29 29 29 29 26 23 23
0 0 0 0 0 0 0 0 0 0 0 0 0 0 0 0 3 13 19 13 13 13 19 13 13 19 29 26 29 39 42 42 35 42 42 32 32 26 29 29 29 29 29 29
0 0 0 0 0 0 0 0 0 0 0 0 0 0 6 3 10 13 16 16 13 16 13 16 19 23 26 26 29 32 32 32 35 35 39 35 32 32 29 29 26 23 26 26
0 0 0 0 0 0 0 0 0 0 0 0 0 0 6 10 13 10 13 16 19 16 16 16 16 19 19 26 29 29 32 29 35 35 35 29 26 29 26 26 23 29 32 29
0 0 0 0 0 0 0 0 0 0 0 0 0 3 6 13 13 10 13 16 19 19 19 13 13 10 13 19 29 29 29 29 23 29 29 29 26 26 23 23 23 23 29 32
0 0 0 0 0 0 0 0 0 0 0 0 3 3 3 10 10 6 13 13 16 19 16 13 19 16 19 19 29 29 29 26 29 23 26 26 23 23 19 19 19 23 26 26
0 0 0 0 0 0 0 0 3 3 3 3 3 3 6 6 0 3 10 19 16 16 19 19 13 16 19 23 23 19 29 26 29 26 26 19 16 16 23 23 29 32 29 29
0 0 0 0 0 0 0 0 0 0 0 3 6 6 3 6 3 10 10 16 19 19 23 19 19 19 16 16 26 19 23 23 23 19 19 19 19 19 26 26 26 26 29 26
0 0 0 0 0 0 0 0 0 0 0 0 3 3 6 6 6 13 16 16 19 19 19 23 16 13 13 13 13 23 23 23 19 16 19 19 19 19 23 23 23 23 26 23
0 0 0 0 0 0 0 0 0 0 0 0 3 6 10 13 13 19 23 23 19 13 19 13 13 13 16 16 19 16 13 19 19 23 23 19 19 23 23 23 23 26 23 26
0 0 0 0 0 0 0 0 0 0 0 0 0 6 10 13 13 16 16 13 13 16 13 13 13 10 13 13 13 10 13 16 16 19 26 26 26 23 23 23 23 23 23 19
0 0 0 0 0 0 0 0 0 0 0 0 0 0 6 13 6 3 10 13 13 13 16 16 16 10 10 10 13 13 13 16 16 13 16 32 23 26 23 16 16 16 16 16
0 0 0 0 0 0 0 0 0 0 0 0 0 0 3 6 6 6 10 13 13 13 13 16 10 10 10 6 10 10 10 6 16 16 26 26 23 19 19 19 13 10 13 13
0 0 0 0 0 0 0 0 0 0 0 0 0 0 0 3 3 3 6 10 13 10 10 10 10 10 6 10 6 6 6 10 13 16 23 23 19 10 10 16 10 10 10 6
0 0 0 0 0 0 0 0 0 0 0 0 0 0 0 0 0 3 6 6 6 6 10 10 6 6 13 6 13 13 16 13 16 16 13 10 10 10 3 3 3 3 3 3
0 0 0 0 0 0 0 0 0 0 0 0 0 0 0 0 0 0 3 6 6 6 3 10 10 10 10 6 10 6 10 10 10 13 10 6 6 6 6 3 3 3 3 3
0 0 0 0 0 0 0 0 0 0 0 0 0 0 0 0 0 0 3 3 3 0 3 6 10 10 10 6 6 3 6 6 6 3 3 6 6 6 6 3 3 0 0 3
Height
5879 5881 5883 5884 5886 5887 5888 5890 5891 5892 5893 5893 5894 5895 5896 5896 5897 5897 5898 5898 5898 5898 5897 5896 5895 5895 5894 5894 5894 5893 5893 5892 5892 5891 5891 5891 5891 5892 5892 5892 5892 5892 5892 5892
5877 5879 5881 5881 5882 5883 5885 5886 5888 5890 5890 5891 5892 5893 5894 5895 5896 5896 5897 5897 5897 5897 5897 5896 5895 5895 5894 5894 5894 5894 5894 5893 5893 5893 5892 5892 5892 5892 5893 5892 5892 5892 5892 5891
5874 5877 5877 5878 5879 5880 5882 5883 5885 5886 5887 5888 5889 5891 5892 5893 5894 5895 5895 5895 5895 5896 5896 5895 5895 5894 5894 5893 5894 5894 5894 5894 5894 5893 5893 5893 5893 5893 5893 5893 5892 5892 5892 5891
5870 5872 5873 5875 5876 5877 5879 5880 5881 5882 5883 5884 5886 5887 5889 5890 5892 5893 5894 5894 5894 5894 5894 5894 5894 5893 5893 5894 5894 5893 5893 5894 5893 5893 5893 5893 5892 5892 5892 5892 5892 5892 5891 5891
5867 5868 5870 5871 5873 5874 5875 5876 5877 5878 5879 5881 5882 5883 5886 5887 5888 5890 5891 5892 5892 5893 5893 5892 5892 5892 5892 5892 5892 5892 5892 5893 5893 5893 5893 5892 5892 5892 5891 5891 5891 5891 5890 5890
5863 5864 5866 5868 5869 5870 5871 5872 5873 5874 5875 5876 5878 5879 5882 5884 5885 5887 5888 5889 5890 5890 5890 5890 5890 5890 5890 5890 5891 5891 5891 5891 5891 5891 5891 5891 5890 5890 5890 5890 5890 5889 5889 5888
5859 5861 5862 5864 5865 5866 5867 5868 5869 5870 5871 5872 5874 5875 5878 5880 5882 5883 5884 5885 5886 5887 5887 5887 5887 5887 5887 5887 5888 5888 5888 5888 5888 5889 5889 5888 5888 5888 5888 5888 5887 5887 5886 5885
5855 5857 5859 5859 5861 5862 5862 5864 5866 5866 5867 5869 5870 5871 5875 5876 5877 5878 5880 5881 5882 5883 5884 5884 5884 5884 5884 5884 5885 5885 5885 5885 5885 5885 5885 5885 5885 5885 5885 5885 5884 5884 5883 5882
5850 5852 5854 5855 5856 5857 5858 5859 5861 5862 5862 5863 5864 5867 5869 5871 5873 5874 5875 5876 5877 5879 5879 5880 5880 5881 5881 5881 5881 5881 5881 5881 5881 5881 5881 5881 5881 5881 5881 5881 5881 5880 5880 5879
5845 5847 5849 5850 5851 5852 5854 5855 5856 5856 5857 5857 5859 5861 5864 5866 5868 5869 5870 5871 5872 5874 5874 5875 5875 5876 5876 5876 5876 5876 5877 5877 5876 5876 5876 5876 5876 5877 5877 5877 5877 5876 5876 5875
5840 5842 5844 5845 5846 5847 5849 5850 5850 5851 5852 5853 5853 5858 5859 5861 5862 5863 5864 5865 5866 5868 5869 5869 5870 5870 5871 5870 5870 5871 5871 5871 5871 5871 5871 5871 5871 5871 5871 5872 5871 5871 5871 5870
5834 5836 5837 5839 5841 5841 5842 5843 5844 5846 5846 5847 5848 5853 5853 5854 5856 5857 5858 5859 5860 5861 5862 5863 5863 5864 5864 5864 5864 5865 5865 5865 5865 5865 5865 5865 5865 5865 5865 5865 5865 5866 5865 5865
5828 5829 5831 5832 5836 5836 5836 5836 5838 5839 5840 5840 5842 5846 5847 5848 5849 5850 5851 5852 5853 5854 5855 5855 5856 5857 5857 5858 5858 5858 5859 5859 5859 5858 5858 5858 5859 5859 5859 5859 5859 5859 5859 5859
5820 5821 5824 5826 5827 5828 5829 5830 5831 5832 5833 5833 5835 5837 5840 5841 5842 5843 5844 5845 5846 5847 5847 5848 5849 5849 5850 5851 5851 5851 5852 5851 5851 5851 5852 5852 5852 5852 5852 5852 5852 5852 5852 5852
5812 5813 5815 5817 5818 5820 5821 5823 5824 5825 5826 5827 5828 5830 5832 5833 5835 5836 5836 5837 5838 5839 5839 5840 5841 5841 5842 5842 5843 5844 5844 5844 5844 5844 5844 5844 5844 5844 5845 5845 5845 5844 5844 5844
5803 5805 5806 5808 5810 5811 5813 5815 5816 5817 5818 5819 5820 5822 5824 5825 5827 5827 5828 5829 5830 5830 5831 5832 5833 5833 5833 5834 5835 5836 5837 5837 5837 5837 5837 5837 5836 5836 5837 5837 5837 5836 5836 5836
5795 5796 5798 5799 5801 5801 5804 5807 5808 5808 5809 5811 5812 5815 5816 5817 5819 5820 5820 5821 5822 5822 5823 5824 5824 5824 5825 5825 5826 5827 5828 5829 5829 5829 5829 5829 5828 5828 5828 5828 5828 5828 5828 5827
5787 5788 5788 5790 5792 5792 5798 5798 5799 5800 5801 5802 5803 5805 5807 5809 5810 5811 5812 5812 5813 5814 5815 5815 5815 5816 5816 5817 5817 5818 5819 5820 5821 5821 5820 5820 5820 5820 5819 5819 5819 5818 5818 5818
5777 5778 5779 5780 5781 5782 5786 5788 5789 5790 5791 5793 5794 5796 5797 5799 5800 5802 5803 5804 5804 5805 5806 5806 5807 5807 5808 5808 5808 5809 5809 5810 5811 5811 5811 5811 5810 5810 5810 5810 5809 5809 5809 5808
5767 5768 5769 5770 5771 5773 5777 5778 5778 5780 5781 5783 5784 5785 5787 5789 5791 5794 5794 5794 5795 5795 5796 5796 5797 5797 5798 5799 5799 5799 5799 5800 5800 5801 5801 5801 5800 5800 5800 5800 5800 5799 5798 5798
5757 5758 5759 5760 5760 5763 5766 5767 5768 5770 5773 5773 5774 5775 5777 5779 5781 5783 5783 5784 5784 5785 5785 5786 5787 5787 5788 5788 5788 5788 5788 5789 5789 5789 5790 5790 5790 5790 5790 5790 5789 5788 5788 5787
5746 5747 5749 5750 5751 5755 5755 5756 5758 5759 5761 5762 5764 5765 5767 5768 5770 5772 5773 5773 5773 5774 5775 5776 5776 5776 5777 5777 5777 5777 5777 5778 5778 5778 5779 5779 5779 5779 5779 5779 5778 5777 5777 5776
5735 5737 5737 5740 5743 5743 5744 5745 5746 5748 5750 5752 5753 5755 5757 5758 5759 5761 5762 5763 5764 5764 5765 5765 5765 5766 5766 5765 5765 5766 5766 5766 5767 5767 5768 5768 5768 5768 5768 5767 5767 5766 5765 5765
5724 5725 5726 5728 5730 5731 5733 5734 5736 5738 5739 5741 5743 5745 5746 5748 5749 5750 5752 5753 5753 5754 5755 5755 5755 5755 5755 5755 5754 5755 5755 5755 5755 5756 5756 5756 5756 5756 5756 5755 5755 5754 5754 5754
5714 5715 5715 5717 5719 5720 5722 5723 5725 5727 5729 5731 5732 5734 5735 5737 5738 5740 5741 5742 5743 5744 5744 5744 5745 5745 5745 5745 5745 5744 5744 5744 5745 5745 5744 5744 5745 5745 5745 5744 5744 5743 5743 5743
5704 5704 5705 5707 5708 5709 5712 5713 5714 5716 5718 5719 5721 5723 5725 5726 5727 5729 5730 5732 5732 5733 5734 5734 5735 5735 5735 5734 5734 5734 5733 5733 5733 5733 5733 5733 5733 5734 5734 5733 5733 5732 5732 5731
Wind_Speed
18 17 16 16 17 17 16 15 14 14 14 13 10 8 7 6 5 4 3 0 1 2 4 5 5 5 5 5 6 6 7 7 6 6 5 4 4 4 3 2 1 1 1 1
19 18 17 18 19 19 19 18 17 17 16 16 14 12 11 9 8 6 5 4 2 1 2 4 4 3 3 3 4 5 6 6 5 5 4 4 3 3 3 2 1 1 1 2
18 18 19 20 20 21 21 20 18 18 17 18 17 15 14 12 11 9 8 6 5 4 3 2 2 2 1 3 3 4 4 4 4 4 4 4 3 3 2 2 2 2 3 3
18 18 20 20 21 21 21 21 20 19 19 19 18 18 16 15 13 11 11 9 7 6 5 4 3 2 2 2 2 2 2 3 2 2 2 2 3 3 3 3 3 4 4 5
18 19 20 20 21 21 21 22 21 21 21 21 20 20 18 17 16 14 13 11 10 9 8 7 6 5 4 4 4 3 3 3 3 3 3 3 3 4 4 5 5 6 7 8
19 19 20 20 21 23 22 23 22 22 22 22 21 22 20 19 17 15 14 13 12 11 11 10 9 8 6 6 6 6 5 6 6 6 6 6 6 6 6 6 7 8 9 10
19 19 19 20 22 22 22 22 22 22 22 22 21 23 22 19 17 17 17 16 16 15 13 11 10 10 9 9 8 9 9 9 9 9 9 9 9 9 8 8 9 10 11 12
20 19 19 20 21 22 22 23 23 23 22 22 22 22 21 19 19 19 20 19 18 17 15 13 12 12 11 11 10 10 11 11 12 12 12 12 12 12 12 12 12 12 12 13
21 21 20 21 21 21 22 23 24 24 24 23 23 22 22 20 20 20 21 20 19 19 17 16 15 15 15 14 13 12 13 13 14 14 15 14 15 15 15 15 15 15 15 15
22 22 21 21 21 22 23 22 23 25 25 26 26 24 23 22 21 20 21 20 19 20 19 19 18 18 17 18 17 16 16 16 17 17 17 17 18 18 18 16 16 17 17 17
23 24 23 23 24 24 24 24 24 25 26 27 27 26 23 23 21 21 20 20 19 19 20 21 21 20 20 20 20 19 19 20 20 20 19 19 20 21 20 19 19 19 19 19
25 26 25 25 25 26 26 26 26 27 28 29 30 28 25 24 23 23 22 22 22 22 22 23 23 23 23 22 22 21 21 21 22 21 21 21 21 21 21 21 21 20 20 21
27 28 28 28 28 28 28 28 28 28 29 30 31 29 27 26 25 25 25 24 24 24 24 25 25 25 25 24 24 23 22 22 23 23 23 22 22 22 22 23 23 23 23 23
30 31 31 30 30 30 30 30 30 31 31 32 32 31 29 28 27 26 26 26 26 26 25 26 27 27 27 27 26 25 24 23 23 24 24 24 24 24 25 25 25 25 26 26
32 33 33 32 31 31 31 32 33 33 33 34 33 33 31 30 29 28 27 27 27 27 27 27 28 28 28 29 28 26 26 26 25 25 25 25 26 26 26 27 28 27 27 28
33 34 33 33 33 33 34 33 34 34 34 34 35 34 32 31 30 30 29 28 28 27 28 28 28 29 29 29 28 28 28 28 27 27 27 28 29 29 28 29 30 29 29 30
34 35 35 35 35 35 35 34 35 35 35 36 35 34 34 33 31 30 30 29 29 29 29 29 30 30 30 29 29 30 30 29 29 29 29 30 30 30 30 31 31 32 31 31
36 36 38 38 37 37 35 34 36 37 36 37 37 36 36 35 33 33 33 32 30 30 30 30 30 30 30 30 31 32 32 31 32 32 32 32 32 32 32 33 33 32 31 31
38 38 38 39 39 38 36 36 36 37 37 37 37 37 37 36 34 33 33 33 32 32 32 32 32 32 32 31 32 32 32 34 34 34 33 32 33 33 33 34 33 33 33 33
38 39 40 40 41 40 37 37 37 37 38 36 37 37 37 37 35 34 33 34 34 35 35 34 34 35 35 35 35 35 34 35 36 35 34 33 34 35 34 34 34 34 34 34
38 39 40 40 41 41 40 39 38 38 37 36 37 37 37 37 36 35 35 35 35 36 36 36 36 36 36 36 35 36 36 35 36 36 35 35 35 35 34 34 35 35 35 35
38 39 39 39 40 40 39 39 40 39 38 37 36 37 38 38 38 37 37 36 36 36 36 37 38 38 38 36 35 36 36 36 36 36 36 36 35 35 36 36 36 36 36 36
38 39 39 40 40 40 39 39 39 39 38 38 37 37 38 38 38 38 37 37 37 37 38 38 39 39 37 36 36 36 36 36 36 37 37 36 35 36 37 37 36 36 36 37
39 38 38 38 38 39 39 39 38 38 38 38 38 38 38 38 39 39 38 38 38 38 38 38 38 38 37 37 36 35 35 35 35 36 37 37 37 36 36 36 36 36 36 36
38 38 37 37 37 37 37 37 38 38 38 38 37 37 38 39 39 39 39 38 38 38 37 37 36 36 35 36 36 36 36 36 37 37 38 38 37 37 36 36 36 36 36 36
36 38 38 37 36 37 36 37 37 38 38 38 38 38 38 39 39 38 38 38 37 37 37 36 36 35 35 35 35 35 35 36 36 36 36 37 37 37 37 37 36 36 36 36
Wind_Direction
241 241 241 236 234 234 232 231 232 229 229 229 232 235 242 243 253 254 256 304 39 22 26 25 35 40 42 54 61 66 72 70 77 80 80 82 76 75 74 81 74 79 13 2
240 240 239 235 235 236 237 238 238 235 235 233 234 239 248 252 253 252 250 253 249 274 356 358 8 26 39 45 56 60 68 62 63 64 62 65 60 56 51 47 38 351 321 319
241 241 239 238 238 237 239 241 242 242 243 241 241 243 250 250 246 248 252 254 242 241 263 303 325 336 359 10 35 45 45 43 51 53 50 46 40 31 16 355 338 323 309 307
238 238 239 240 240 241 242 243 243 243 245 247 248 250 247 246 245 250 252 252 247 244 254 269 278 284 298 302 318 332 346 358 3 5 6 8 8 1 345 328 317 316 311 306
238 238 239 240 240 242 244 245 245 245 243 247 249 251 248 245 253 255 252 250 253 249 251 259 263 257 261 263 280 288 295 304 311 318 321 319 321 327 324 312 303 302 303 303
239 240 241 241 240 242 245 245 245 247 247 248 250 251 248 248 251 252 252 252 256 256 254 253 256 257 258 259 266 264 277 283 288 292 296 298 296 300 303 301 296 294 295 295
240 241 241 243 242 243 245 245 246 248 249 251 252 251 251 251 251 254 253 253 254 256 255 252 254 257 260 265 268 264 267 273 277 281 284 284 285 287 289 290 292 293 291 289
244 241 242 245 246 246 247 248 250 253 254 255 252 252 254 255 255 255 254 252 253 255 256 255 254 257 259 260 263 264 268 269 271 274 274 276 278 280 281 283 285 288 289 288
245 244 245 247 247 246 247 251 253 254 254 256 255 255 255 256 259 259 254 252 253 255 256 254 252 253 256 257 261 265 268 271 271 272 272 271 273 275 276 279 281 283 286 286
245 244 243 246 247 245 248 251 252 255 256 258 258 258 260 259 263 265 259 253 252 254 255 257 255 253 255 256 260 266 271 272 273 273 274 272 273 273 274 276 279 281 282 282
247 246 244 243 245 245 245 247 250 253 254 257 260 261 264 265 264 263 260 257 256 255 257 259 258 257 259 260 260 264 269 270 272 273 271 271 274 274 276 274 274 277 279 279
248 247 245 245 246 246 248 248 249 251 253 256 259 263 266 267 265 262 261 261 261 261 260 261 260 260 259 261 261 263 266 269 269 271 271 272 274 275 276 274 273 275 277 278
250 250 250 247 247 248 248 249 251 254 257 258 259 263 265 266 266 264 263 263 262 262 263 261 260 261 259 258 260 261 265 267 267 269 270 270 272 272 271 271 273 274 275 276
254 253 253 253 252 250 250 251 253 256 258 259 260 263 265 267 267 266 264 264 263 263 265 263 261 262 261 260 259 260 261 264 267 268 268 269 269 269 269 270 273 274 273 274
256 256 256 254 252 251 251 252 254 256 259 261 262 263 266 267 268 267 266 265 265 263 263 264 263 262 261 260 261 260 261 262 264 265 266 267 268 269 270 271 273 273 273 275
256 257 257 256 255 254 254 254 256 258 260 261 262 263 265 266 267 268 268 270 268 265 265 264 265 265 264 262 261 260 260 261 263 264 265 267 270 270 271 272 274 274 274 274
257 257 257 257 257 257 257 256 258 259 260 261 262 263 264 264 265 267 269 271 270 269 268 266 266 267 267 264 261 261 260 261 263 265 267 269 270 271 273 273 274 274 274 275
257 257 258 259 258 258 260 259 260 261 261 261 261 261 262 264 265 267 268 268 267 268 269 270 269 266 264 264 263 262 260 261 263 266 267 269 271 273 273 274 276 276 277 278
256 257 258 259 260 261 260 262 263 263 262 261 260 260 261 262 264 265 267 267 267 267 268 269 270 268 266 266 266 266 266 264 264 267 269 271 271 273 273 274 277 278 279 278
257 257 259 259 260 262 263 263 263 263 262 261 261 261 261 262 263 264 264 265 266 267 267 268 269 269 269 270 269 268 269 268 268 269 270 271 272 272 274 275 278 278 279 278
258 259 260 261 261 262 263 264 264 264 263 261 260 260 261 262 263 263 264 265 266 267 268 269 269 270 271 272 273 270 271 270 268 269 270 270 271 272 274 275 276 278 279 278
259 260 260 261 261 261 262 263 262 263 262 262 261 260 260 262 263 264 265 266 267 266 267 269 271 271 272 272 272 271 270 270 270 269 269 270 271 272 273 274 276 277 278 277
260 260 261 261 261 262 261 261 261 260 260 261 262 262 262 262 262 263 264 264 264 265 267 269 271 272 271 272 273 272 271 270 269 269 271 272 271 272 274 275 276 276 277 277
261 261 261 261 261 261 261 262 262 260 259 259 260 261 262 262 262 262 263 264 265 266 268 269 270 271 272 272 274 271 270 270 270 270 271 271 271 272 273 274 276 277 276 276
262 262 263 262 262 261 261 262 261 260 260 260 260 261 261 261 261 262 263 264 265 267 268 269 270 271 272 272 273 272 272 273 272 273 272 271 271 272 273 274 275 276 275 274
261 262 262 262 261 261 261 261 261 260 259 259 260 260 261 262 262 263 264 265 266 267 267 268 270 272 273 273 272 273 273 273 271 272 271 269 270 271 271 272 274 275 274 274